Regional Weather Roundup
Issued by NWS

Home | Current Version | Previous Version | Text Only | Print | Product List | Glossary Off
Versions: 1 2 3 4 5 6 7 8 9 10 11 12 13 14 15 16 17 18 19 20 21 22 23 24 25 26 27 28 29 30 31 32 33 34 35 36 37 38 39 40 41 42 43 44 45 46 47 48 49 50

843
ASUS45 KTFX 280210
RWRMT
MONTANA REGIONAL WEATHER ROUNDUP
NATIONAL WEATHER SERVICE GREAT FALLS MT
800 PM MDT TUE SEP 27 2016

NOTE: "FAIR" INDICATES FEW OR NO CLOUDS BELOW 12000 FEET WITH NO
SIGNIFICANT WEATHER AND/OR OBSTRUCTIONS TO VISIBILITY.

MTZ001>007-043-280300-
WEST OF THE DIVIDE

CITY           SKY/WX    TMP DP  RH WIND       PRES   REMARKS
KALISPELL      CLEAR     69  43  38 VRB5      30.02R
MISSOULA       CLEAR     68  48  48 CALM      30.05R
BUTTE          CLEAR     60  41  49 S5        30.18R
MULLAN PASS    CLEAR     58  42  55 VRB5      30.20F
ANACONDA         N/A     66  37  34 NE5       30.15R
DEER LODGE       N/A     61  39  44 W5        30.16R
EUREKA           N/A     66  43  42 CALM      30.03R
HAMILTON         N/A     70  48  46 CALM      30.06R
LIBBY            N/A     66  46  48 CALM      30.02R
PLAINS           N/A     71  45  39 CALM      30.02
$$

MTZ008-052>055-280300-
SOUTHWEST MONTANA

CITY           SKY/WX    TMP DP  RH WIND       PRES   REMARKS
BOZEMAN        CLEAR     59  44  57 SE10      30.12R
DILLON         CLEAR     61  38  42 SE9       30.14R
W YELLOWSTONE    N/A     55  37  50 SW3       30.27R
ENNIS          CLEAR     59  36  41 E7        30.21R
THREE FORKS      N/A     66  38  35 CALM      30.09R
TWIN BRIDGES     N/A     63  37  37 N5        30.11R
$$

MTZ009-010-012-014-046-048-049-054-280300-
EAST SLOPES AND CENTRAL MONTANA

CITY           SKY/WX    TMP DP  RH WIND       PRES   REMARKS
CUT BANK       CLEAR     55  38  52 N17       30.17R
GREAT FALLS    CLEAR     65  45  48 N15       30.08R
MALMSTROM AFB  CLEAR     67  46  46 N13       30.09R
HELENA         CLEAR     72  38  29 W5        30.07S
CHOTEAU          N/A     59  45  58 N15       30.17R
CONRAD           N/A     58  45  62 NW12      30.16R
$$

MTZ011-013-016-021-045-047-050-051-280300-
NORTH CENTRAL MONTANA

CITY           SKY/WX    TMP DP  RH WIND       PRES   REMARKS
HAVRE          CLEAR     66  48  52 N14       30.06R
LEWISTOWN      CLEAR     60  43  53 S10       30.10R
N BAR RANCH      N/A     57  41  54 NW5       30.14R
CHINOOK          N/A     70  48  46 NW12G22   30.02R
$$

MTZ017>020-022>027-061-062-280300-
NORTHEAST MONTANA

CITY           SKY/WX    TMP DP  RH WIND       PRES   REMARKS
GLASGOW        CLEAR     74  44  34 NW7       29.93R
JORDAN           N/A     60  49  66 W5        29.99R
SIDNEY         CLEAR     67  49  52 W9        29.94R
WOLF POINT     CLEAR     64  53  67 CALM      29.93R
PLENTYWOOD       N/A     72  48  43 E5        29.94R
POPLAR           N/A     72  48  43 CALM      29.94R
SCOBEY           N/A     64  42  44 CALM      29.95R
$$

MTZ028>42-056>058-280300-
SOUTHCENTRAL AND SOUTHEAST MONTANA

CITY           SKY/WX    TMP DP  RH WIND       PRES   REMARKS
BAKER          CLEAR     61  49  64 CALM      30.02R
BILLINGS       CLEAR     72  40  31 W10       30.06R
LIVINGSTON     CLEAR     59  40  49 SW5       30.13R
MILES CITY     CLEAR     68  46  45 W7        30.00R
BIG TIMBER     CLEAR     63  36  36 SW7       30.15R
EKALAKA          N/A     63  43  48 SE5       30.04R
FORSYTH          N/A     66  46  48 CALM      30.02R
LAUREL           N/A     66  43  43 W3        30.05
ROUNDUP          N/A     72  40  31 NW5       29.98R
$$

REGIONAL REPORTS...DAKOTAS

CITY           SKY/WX    TMP DP  RH WIND       PRES   REMARKS
WILLISTON      CLEAR     57  50  77 CALM      29.94R
MINOT          CLEAR     55  42  61 E6        29.97R HAZE
DICKINSON      CLEAR     62  47  57 S5        29.97R
BEACH            N/A     55  52  88 SW3       30.02R
CROSBY           N/A     55  48  76 E5        29.97R
WATFORD CITY     N/A     63  50  63 E10       29.95R
BISMARCK       CLEAR     52  44  74 E5        29.98R
GRAND FORKS    CLOUDY    53  46  77 N7        29.98R
FARGO          CLOUDY    54  44  69 N12       29.95R
BUFFALO SD       N/A     67  46  47 NW8       29.97R
RAPID CITY     CLEAR     67  43  41 N14       30.02R
$$

REGIONAL REPORTS...WYOMING/IDAHO/WASHINGTON

CITY           SKY/WX    TMP DP  RH WIND       PRES   REMARKS
GILLETTE       CLEAR     54  45  71 CALM      30.12R
SHERIDAN       CLEAR     58  47  66 S7        30.10R
BUFFALO WY     CLEAR     59  42  53 W7        30.17R
CODY           CLEAR     63  45  51 CALM      30.19R
YELLOWSTONE LA   N/A     46  40  79 NW3       30.36R
IDAHO FALLS    CLEAR     61  46  57 CALM      30.15R
SALMON         CLEAR     64  37  36 S5        30.06R
BOISE          CLEAR     77  45  32 CALM      29.99R
SPOKANE        MOCLDY    72  40  31 SW6       30.02S
$$

REGIONAL REPORTS...ALBERTA

CITY           SKY/WX    TMP DP  RH WIND       PRES   REMARKS
CALGARY        MOCLDY    52  34  50 W5        30.23R
LETHBRIDGE     PTCLDY    54  37  54 NW9       30.21R
MEDICINE HAT   CLEAR     55  39  54 N7        30.15R
WATERTON GATE    N/A     50  39  66 NE3         N/A
MILK RIVER       N/A     52  39  62 N12         N/A
ONEFOUR          N/A     57  43  58 NW16        N/A
$$

REGIONAL REPORTS...SASKATCHEWAN

CITY           SKY/WX    TMP DP  RH WIND       PRES   REMARKS
SWIFT CURRENT  CLEAR     57  46  67 NW15G24   30.05R
REGINA         CLEAR     61  48  63 SE10      29.92R
SASKATOON      PTCLDY    59  46  63 N16G22    30.01R
CYPRESS HILLS    N/A     54  41  62 N13G20      N/A
VAL MARIE        N/A     66  46  48 N21G29      N/A
ROCKGLEN         N/A     68  45  42 NW7         N/A
ASSINIBOIA       N/A     45  34  65 W6          N/A
$$




USA.gov is the U.S. government's official web portal to all federal, state and local government web resources and services.